Best Dividend Stocks - Italian Stock Exchange

Screen the best dividend stocks for Italian Stock Exchange

# Ticker Company Dividend Yield TTM Dividend Yield Streaks Last Quote Quote Date
1 DTE.MI Deutsche Telekom AG 11.24 % 7.49 % 14 16.012 2021-04-16
2 ASC.MI Ascopiave S.p.A 11.04 % 11.04 % 8 3.865 2021-04-16
3 POPR.MI Poligrafici Printing S.p.A 10.12 % 10.12 % 2 0.484 2021-04-12
4 GLE.MI Societe Generale Societe anonyme 9.95 % 9.95 % 8 22.115 2021-04-16
5 AXA.MI AXA SA 9.23 % 9.23 % 22 23.40 2021-04-16
6 ISP.MI Intesa Sanpaolo S.p.A 8.44 % 8.44 % 11 2.275 2021-04-16
7 DEA.MI DeA Capital S.p.A 8.16 % 8.16 % 6 1.47 2021-04-16
8 INW.MI Infrastrutture Wireless Italiane S.p.A 7.63 % 1.39 % 5 9.512 2021-04-16
9 UCG.MI UniCredit S.p.A 7.47 % 7.47 % 3 8.429 2021-04-16
10 CELL.MI Cellularline S.p.A 7.33 % 7.33 % 2 4.50 2021-04-15
11 TOT.MI TOTAL S.A 7.04 % 5.26 % 16 38.05 2021-04-16
12 ACS.MI Acsm-Agam S.p.A 6.90 % 6.90 % 11 2.32 2021-04-16
13 SRS.MI Saras S.p.A 6.89 % 6.89 % 5 0.58 2021-04-16
14 EQUI.MI Equita Group S.p.A 6.40 % 6.40 % 3 2.97 2021-04-16
15 SRI.MI Servizi Italia S.p.A 6.21 % 6.21 % 13 2.255 2021-04-16
16 IGD.MI Immobiliare Grande Distribuzione SIIQ S.p.A 6.12 % 6.12 % 16 3.725 2021-04-16
17 TITR.MI Telecom Italia S.p.A 5.90 % 5.90 % 17 0.466 2021-04-16
18 RAT.MI Ratti S.p.A 5.47 % 5.47 % 9 4.02 2021-04-16
19 BAN.MI BasicNet S.p.A 5.39 % 5.39 % 6 4.455 2021-04-16
20 BDBR.MI Banco di Desio e della Brianza S.p.A 5.36 % 5.36 % 21 2.32 2021-04-16
21 ENI.MI Eni S.p.A 5.31 % 5.31 % 19 10.364 2021-04-16
22 BAY.MI Bayer Aktiengesellschaft 5.28 % 5.28 % 13 53.03 2021-04-16
23 ENAV.MI ENAV S.p.A 5.26 % 5.26 % 4 3.98 2021-04-16
24 TEF.MI Telefonica, S.A 5.22 % 5.22 % 15 3.701 2021-04-16
25 CNF.MI Conafi S.p.A 5.15 % 5.15 % 3 0.369 2021-04-16
26 SRG.MI Snam S.p.A 5.14 % 3.08 % 17 4.624 2021-04-16
27 BGN.MI Banca Generali S.p.A 5.01 % 5.01 % 14 30.92 2021-04-16
28 A2A.MI A2A S.p.A 5.00 % 5.00 % 19 1.55 2021-04-16
29 AZM.MI Azimut Holding S.p.A 4.99 % 4.99 % 13 20.06 2021-04-16
30 RWAY.MI Rai Way S.p.A 4.81 % 4.81 % 6 4.84 2021-04-16
31 IG.MI Italgas S.p.A 4.79 % 4.79 % 4 5.344 2021-04-16
32 FCA.MI Fiat Chrysler Automobiles N.V 4.71 % 4.71 % 2 14.85 2021-03-19
33 ANIM.MI Anima Holding S.p.A 4.67 % 4.67 % 6 4.386 2021-04-16
34 ALV.MI Allianz SE 4.45 % 4.45 % 14 215.55 2021-04-16
35 PST.MI Poste Italiane SpA 4.42 % 4.42 % 5 10.655 2021-04-16
36 MT.MI Maire Tecnimont S.p.A 4.42 % 4.42 % 5 2.626 2021-04-16
37 BMED.MI Banca Mediolanum S.p.A 4.36 % 4.36 % 21 7.80 2021-04-15
38 BB.MI BB Biotech AG 4.34 % 0.00 % 8 74.15 2021-04-16
39 INGA.MI ING Groep N.V 4.32 % 4.32 % 6 10.406 2021-04-16
40 CRES.MI Coima Res S.p.A 4.30 % 4.30 % 4 6.98 2021-04-16
41 PIA.MI Piaggio & C. SpA 4.22 % 4.22 % 6 3.486 2021-04-16
42 TRN.MI Terna - Rete Elettrica Nazionale Societa per Azioni 4.19 % 4.19 % 16 6.112 2021-04-16
43 BST.MI Banca Sistema S.p.A 4.17 % 4.17 % 5 2.085 2021-04-15
44 ITM.MI Italmobiliare S.p.A 4.14 % 4.14 % 7 29.00 2021-04-16
45 ACE.MI ACEA S.p.A 4.12 % 4.12 % 10 18.94 2021-04-16
46 EUK.MI EuKedos S.p.A 4.07 % 4.07 % 1 1.08 2021-04-16
47 CALT.MI Caltagirone SpA 4.07 % 4.07 % 26 3.44 2021-04-15
48 RCS.MI RCS MediaGroup S.p.A 4.05 % 4.05 % 2 0.74 2021-04-16
49 CBK.MI Commerzbank Ag 4.05 % 4.05 % 2 4.938 2021-04-16
50 NDT.MI Neodecortech S.p.A 4.04 % 0.00 % 3 3.59 2021-04-16
51 IRE.MI Iren SpA 3.92 % 3.92 % 19 2.36 2021-04-16
52 DG.MI Vinci Sa 3.91 % 3.91 % 9 89.86 2021-04-16
53 ENEL.MI Enel SpA 3.82 % 1.96 % 19 8.581 2021-04-16
54 CMB.MI Cembre S.p.A 3.81 % 3.81 % 22 23.60 2021-04-16
55 TEN.MI Tenaris S.A 3.81 % 3.81 % 18 9.194 2021-04-16
56 BDB.MI Banco di Desio e della Brianza S.p.A 3.79 % 3.79 % 26 2.73 2021-04-16
57 PIRC.MI Pirelli & C. S.p.A 3.72 % 3.72 % 2 4.918 2021-04-16
58 MN.MI Arnoldo Mondadori Editore S.p.A 3.72 % 3.72 % 1 1.614 2021-04-16
59 FM.MI Fiera Milano SpA 3.71 % 3.71 % 2 3.505 2021-04-16
60 SANF.MI Sanofi 3.71 % 3.71 % 14 84.94 2021-04-16
61 IB.MI Iniziative Bresciane S.p.A 3.53 % 3.53 % 6 18.40 2021-04-16
62 SANT.MI Banco Santander, S.A 3.49 % 3.49 % 22 2.862 2021-04-16
63 MZB.MI Massimo Zanetti Beverage Group S.p.A 3.47 % 3.47 % 5 5.48 2021-02-12
64 DAL.MI Datalogic S.p.A 3.46 % 3.46 % 10 17.32 2021-04-16
65 BAMI.MI Banco BPM Societa per Azioni 3.44 % 3.44 % 1 2.325 2021-04-16
66 EMLOC.MI UBS ETF - J.P. Morgan EM Multi-Factor Enhanced Local Currency Bond UCITS ETF (USD) A-dis 3.37 % 0.00 % 2 12.582 2021-04-16
67 PHIA.MI Koninklijke Philips N.V 3.36 % 3.36 % 14 50.59 2021-04-15
68 ARN.MI Alerion Clean Power S.p.A 3.12 % 3.12 % 11 12.82 2021-04-16
69 FNM.MI FNM S.p.A 3.10 % 3.10 % 8 0.71 2021-04-16
70 SGR.MI SAES Getters S.p.A 3.08 % 3.08 % 10 16.75 2021-04-16
71 HER.MI Hera S.p.A 3.05 % 3.05 % 17 3.284 2021-04-16
72 ERG.MI ERG S.p.A 3.02 % 3.02 % 22 24.80 2021-04-16
73 G.MI Assicurazioni Generali S.p.A 2.94 % 2.94 % 19 17.025 2021-04-16
74 SICT.MI SICIT Group S.p.A 2.91 % 2.91 % 2 15.45 2021-04-16
75 SIE.MI Siemens Aktiengesellschaft 2.78 % 0.00 % 14 140.04 2021-04-16
76 VNA.MI Vonovia SE 2.70 % 2.70 % 4 58.20 2021-04-15
77 VLS.MI Valsoia S.p.A 2.69 % 2.69 % 14 14.15 2021-04-16
78 SGO.MI Compagnie de Saint-Gobain S.A 2.64 % 2.64 % 4 52.33 2021-04-15
79 CULT.MI Culti Milano S.p.A 2.62 % 2.62 % 3 6.10 2021-04-16
80 ZV.MI Zignago Vetro S.p.A 2.41 % 2.41 % 13 17.48 2021-04-16
81 DPW.MI Deutsche Post AG 2.39 % 2.39 % 8 48.165 2021-04-16
82 DAI.MI Daimler AG 2.39 % 1.19 % 10 75.47 2021-04-16
83 FNL.MI Finlogic S.p.A 2.36 % 2.36 % 3 5.98 2021-04-16
84 OJM.MI Openjobmetis S.p.A 2.36 % 2.36 % 2 8.90 2021-04-16
85 SG.MI SAES Getters S.p.A 2.33 % 2.33 % 10 21.50 2021-04-16
86 TIT.MI Telecom Italia S.p.A 2.27 % 2.27 % 1 0.44 2021-04-16
87 FBK.MI FinecoBank Banca Fineco S.p.A 2.25 % 2.25 % 6 14.225 2021-04-16
88 REC.MI Recordati Industria Chimica e Farmaceutica S.p.A 2.24 % 2.24 % 26 45.46 2021-04-16
89 AD.MI Koninklijke Ahold Delhaize N.V 2.18 % 2.18 % 14 22.98 2021-04-16
90 FRE.MI Fresenius SE & Co. KGaA 2.16 % 2.16 % 4 38.855 2021-04-16
91 MASI.MI Masi Agricola S.p.A 2.13 % 2.13 % 5 3.28 2021-04-16
92 MARR.MI MARR S.p.A 2.13 % 2.13 % 15 18.78 2021-04-16
93 VIV.MI Vivendi SA 2.09 % 2.09 % 3 28.68 2021-04-14
94 SOM.MI Somec S.p.A 2.07 % 2.07 % 2 24.10 2021-04-16
95 VOW3.MI Volkswagen AG 2.05 % 2.05 % 4 237.60 2021-04-16
96 LD.MI La Doria S.p.A 2.04 % 2.04 % 8 17.76 2021-04-16
97 SOL.MI SOL S.p.A 2.01 % 2.01 % 22 17.44 2021-04-16
98 LDO.MI Leonardo S.p.a 2.01 % 2.01 % 4 6.978 2021-04-16
99 COM.MI Comer Industries S.p.A 1.97 % 1.97 % 2 17.80 2021-04-16
100 ORA.MI Orange S.A 1.95 % 1.95 % 14 10.238 2021-04-16
# Ticker Company Dividend Yield TTM Dividend Yield Streaks Last Quote Quote Date